Theta_e
327 330 332 330 334 332 330 330 331 333 336 339 341 341 340 342 338 338 337 334 333 332 331 330 331 331 331 331 330 328 329 328 328 327 326 326 326 324 321 322 320 319 323 320
326 329 328 325 326 329 330 333 335 335 336 338 338 340 340 342 341 340 339 338 335 335 334 333 332 331 329 328 328 327 328 328 328 325 325 324 321 320 321 317 317 318 321 321
327 327 324 325 327 328 330 334 335 335 339 339 341 341 343 341 341 340 339 339 337 336 336 334 333 332 330 329 328 329 329 329 327 323 321 319 318 315 310 312 312 313 314 315
327 324 325 325 327 328 330 331 333 338 339 337 340 340 340 342 343 341 340 340 338 337 336 336 335 334 333 332 331 329 329 326 323 319 316 314 312 312 312 312 311 312 312 312
328 327 326 327 327 328 328 330 332 335 335 336 340 342 340 337 341 341 340 339 339 338 337 337 336 333 333 331 330 328 326 323 317 313 312 312 312 312 312 312 311 311 311 311
326 323 324 326 326 327 331 333 329 327 332 337 334 340 336 341 340 338 336 337 338 336 334 333 334 333 332 330 328 323 324 316 313 312 313 313 313 313 312 312 311 310 311 310
327 326 324 324 331 331 331 334 336 335 334 336 337 341 339 335 334 334 334 334 332 332 334 334 332 329 329 326 322 323 319 313 313 313 313 313 313 313 312 312 311 311 311 312
327 328 330 331 333 334 332 336 338 338 336 334 336 340 339 332 332 332 331 331 331 331 330 329 328 328 326 323 321 322 314 313 313 313 313 313 313 313 313 313 310 311 312 311
328 329 330 331 331 333 332 335 330 334 325 329 330 331 331 332 334 332 330 328 329 329 328 328 327 325 323 322 322 315 314 314 314 314 314 313 313 314 313 312 311 312 311 311
332 334 331 332 330 326 331 326 331 329 333 331 330 334 334 332 335 335 331 328 328 327 327 327 326 323 323 320 322 315 313 313 314 314 314 313 313 313 312 312 313 310 310 311
332 333 332 331 330 329 328 329 327 328 329 331 332 332 330 333 332 332 333 330 327 326 326 326 324 322 322 322 320 315 314 313 314 313 313 313 312 312 313 311 309 309 311 311
330 334 336 333 328 325 328 328 328 330 331 329 329 330 326 328 327 326 327 329 326 325 324 320 320 319 315 315 314 313 313 314 313 313 312 313 313 310 308 306 307 311 311 310
331 333 335 334 327 327 330 329 326 326 326 331 330 330 325 327 327 325 326 326 325 321 316 314 314 313 313 314 313 313 313 313 313 313 312 310 308 307 306 305 305 309 309 309
329 332 334 334 330 327 333 331 327 327 330 327 326 328 327 327 327 325 323 322 319 316 314 314 314 314 314 315 314 314 313 312 311 310 308 307 306 306 305 304 303 304 307 307
332 336 331 331 330 331 329 326 325 325 325 328 329 329 327 324 326 324 321 318 317 314 313 314 315 314 314 313 312 312 311 310 309 307 306 305 304 302 302 304 304 306 307 306
331 335 334 333 330 331 330 328 325 326 327 327 327 327 320 319 323 323 321 317 315 314 316 315 314 314 312 311 311 310 309 308 305 304 303 302 303 304 303 304 305 305 305 305
335 336 337 336 332 331 333 330 329 328 326 325 326 323 318 319 317 315 316 317 316 316 316 314 313 312 311 310 310 309 306 305 304 303 303 304 305 305 304 304 303 303 302 303
336 337 335 335 333 333 333 329 329 329 324 321 320 319 317 317 316 316 316 317 317 315 314 312 312 310 310 309 308 306 305 304 304 303 304 304 305 305 305 303 302 302 302 303
333 337 335 335 334 331 333 333 329 331 326 318 319 318 317 316 316 317 315 315 315 313 312 311 311 310 309 308 306 306 305 305 304 304 304 304 304 303 304 304 301 302 304 304
331 333 336 334 334 331 332 330 329 325 328 318 317 318 317 316 316 316 315 314 313 312 312 311 310 309 309 306 307 306 305 304 305 304 304 304 302 302 302 302 301 302 303 305
336 336 336 333 335 332 329 327 328 329 327 318 316 316 317 317 316 314 314 313 312 312 311 311 310 309 309 307 307 307 306 305 305 305 304 304 303 301 302 301 301 302 303 305
335 336 335 333 333 332 325 325 326 325 320 317 317 316 317 315 314 313 312 312 311 311 311 310 309 308 309 308 308 307 307 306 305 306 305 304 303 302 302 300 301 302 304 305
335 332 334 330 333 327 324 324 322 320 319 317 316 315 314 314 313 310 310 309 308 309 309 310 309 309 309 309 308 308 308 307 306 306 305 304 301 302 300 300 301 303 305 306
330 326 331 331 327 325 322 317 316 316 316 315 315 314 314 314 311 312 310 309 308 308 308 309 310 310 310 309 309 309 309 308 308 306 306 304 302 300 300 300 302 302 304 305
327 326 329 325 322 322 320 320 317 316 315 315 314 313 313 312 312 312 311 311 309 309 308 309 310 310 310 310 309 309 308 308 308 307 305 305 302 301 301 301 301 301 303 305
323 326 322 322 321 321 319 318 317 316 315 316 315 314 312 312 313 312 312 311 310 309 309 309 310 310 310 310 310 309 308 308 308 308 306 304 302 302 302 303 302 301 302 306
Wind_Speed
4 5 8 10 13 13 8 8 13 5 4 9 14 17 11 13 17 17 17 19 20 20 18 21 20 17 18 19 19 15 15 12 14 16 18 18 19 20 18 18 20 21 18 15
3 9 12 4 7 10 8 7 8 2 2 10 4 14 11 14 19 22 20 19 21 19 17 18 18 16 16 15 15 13 11 10 12 14 15 14 16 17 17 17 19 19 17 16
5 6 3 7 3 5 6 8 9 5 6 2 3 8 6 7 16 18 23 20 18 20 19 17 16 17 16 17 15 12 12 13 13 11 12 12 13 14 16 18 19 17 16 15
6 1 3 2 10 3 13 6 10 5 5 8 2 5 4 5 11 18 22 26 22 19 19 17 17 18 18 17 18 13 13 11 9 9 10 11 10 11 15 18 18 19 20 22
12 9 9 12 11 5 13 1 2 5 4 3 5 4 4 3 8 15 20 23 25 19 17 18 17 18 17 14 11 11 9 8 7 7 9 10 12 14 16 16 18 20 23 25
14 2 5 13 12 7 4 3 3 3 1 6 4 6 4 4 3 4 5 16 17 17 16 19 20 16 11 9 6 8 9 7 10 10 11 13 15 16 18 17 19 20 23 26
5 7 4 5 5 3 2 2 5 5 4 9 4 5 9 4 6 9 8 8 10 10 11 13 12 11 11 6 8 10 6 9 10 13 16 18 19 20 21 21 22 23 26 30
6 10 6 4 4 2 3 3 4 9 10 12 3 5 2 1 8 6 6 7 9 11 12 12 12 12 8 1 14 10 7 10 12 17 19 21 21 23 23 22 24 25 29 31
6 6 2 3 2 3 3 4 2 2 1 4 1 4 7 2 6 5 5 7 12 13 13 13 11 10 9 10 12 10 11 14 17 19 20 22 23 23 23 24 26 29 30 30
3 3 1 2 3 7 1 3 3 1 4 5 1 4 5 6 7 7 9 13 12 10 10 12 11 12 9 9 16 16 17 21 23 21 20 22 22 23 25 26 27 28 29 28
4 1 1 3 1 0 1 2 2 0 2 3 5 5 5 9 8 7 10 11 9 9 10 12 11 12 10 15 16 18 20 22 21 20 20 21 22 24 26 29 30 29 26 25
1 3 2 1 1 2 1 1 1 3 2 0 2 3 4 8 11 10 10 9 10 8 9 7 7 6 11 13 18 18 17 15 17 18 19 20 23 28 30 31 27 23 25 26
3 1 2 1 3 2 2 2 2 2 1 4 6 3 5 10 10 9 8 2 5 4 2 2 3 8 8 14 12 13 12 13 16 18 22 25 27 29 28 27 24 23 25 27
3 2 2 3 2 2 4 8 4 2 2 1 2 8 11 17 15 11 7 8 8 7 4 3 4 6 9 5 8 11 14 15 18 22 25 29 30 28 29 28 26 23 23 24
2 3 2 2 2 2 2 4 5 2 3 4 8 9 11 13 12 8 7 7 8 8 6 3 5 6 5 8 11 12 14 18 22 26 28 28 28 27 24 23 22 19 19 21
1 1 0 2 0 3 4 3 1 5 6 4 7 6 12 10 7 6 4 5 7 9 5 3 2 3 8 10 10 12 17 22 24 24 23 22 21 22 21 20 19 19 20 21
1 3 1 1 5 5 3 3 5 3 5 3 7 4 9 7 10 9 6 4 6 2 3 1 3 7 10 10 12 16 20 19 20 21 18 18 19 21 21 21 22 24 24 22
4 3 1 2 4 2 3 1 1 2 6 5 3 2 5 5 5 5 4 4 4 2 1 4 6 10 9 10 15 16 17 17 19 20 18 19 21 23 23 23 25 27 24 19
2 3 2 2 1 2 2 2 1 2 4 4 2 1 3 2 4 1 2 2 2 2 4 5 10 9 7 12 12 16 17 17 18 17 19 21 22 26 25 22 25 24 22 18
5 5 0 2 1 2 3 3 1 1 2 2 1 1 3 4 5 5 3 4 4 5 6 7 10 8 7 9 13 16 17 16 15 18 23 23 22 27 25 21 24 23 21 17
1 2 1 2 2 1 2 7 1 3 4 1 1 1 4 3 4 6 3 5 8 8 7 9 9 8 8 10 14 16 17 16 18 22 24 22 24 26 21 20 23 23 19 15
0 2 2 2 2 2 5 1 1 3 2 1 1 1 1 3 3 4 7 9 10 9 9 10 10 10 10 13 17 19 18 16 22 23 24 21 23 21 18 20 22 20 16 13
1 1 1 1 2 1 2 3 2 4 2 1 2 2 4 1 3 4 6 8 10 10 10 11 10 12 11 13 17 22 21 19 23 25 20 19 19 16 15 19 20 18 14 13
2 2 2 4 2 1 0 1 3 3 2 1 2 4 3 3 3 5 10 12 12 11 10 11 13 14 15 13 17 21 23 21 23 24 18 17 13 15 16 16 14 17 16 15
1 1 3 3 2 2 2 3 3 2 2 3 3 4 2 4 5 8 11 14 14 14 12 13 15 17 17 16 19 20 18 19 22 22 18 12 12 14 14 14 16 19 15 17
1 2 1 3 2 2 4 6 2 2 2 2 3 3 4 7 10 13 16 16 17 17 16 17 18 19 17 18 20 16 15 18 21 20 13 11 10 12 13 14 14 11 11 11
Wind_Direction
188 210 232 253 220 258 288 261 256 267 194 205 234 259 265 213 214 217 221 218 224 224 231 235 234 238 242 244 245 252 258 267 277 285 285 292 296 303 306 308 308 309 293 285
152 238 247 280 228 244 261 258 261 218 166 214 248 272 267 223 222 220 222 226 229 234 232 238 230 232 236 241 239 240 256 263 268 280 287 291 301 308 310 313 315 315 306 281
224 274 176 264 229 271 279 242 257 271 145 186 303 283 251 228 231 227 230 235 237 236 238 237 231 235 238 241 238 248 251 256 268 284 290 300 311 321 327 324 324 326 323 315
251 267 273 301 304 266 303 250 245 183 197 287 235 283 267 247 247 234 233 231 236 241 242 242 233 238 242 246 240 249 249 265 262 282 296 303 304 326 339 344 333 327 322 318
263 256 269 284 274 257 283 24 219 172 196 243 191 236 259 269 262 246 235 231 231 240 240 244 244 241 247 239 237 255 260 259 284 296 304 302 308 304 315 332 331 320 323 326
257 248 237 259 290 231 142 126 84 89 152 261 273 217 262 234 257 315 270 229 229 241 243 243 242 244 229 216 220 282 256 303 308 307 304 300 293 293 303 314 320 316 318 320
255 254 251 204 212 159 174 244 276 265 254 290 135 200 266 298 301 284 312 216 206 215 208 205 215 212 196 178 314 267 266 291 286 283 292 283 284 288 292 297 303 305 312 316
251 280 197 183 239 238 162 200 261 294 294 310 155 237 274 271 310 259 268 216 194 197 200 202 198 187 176 216 289 242 270 278 280 285 281 277 280 283 286 290 298 307 313 311
189 254 297 63 32 317 124 219 18 284 95 254 354 269 263 272 240 229 203 194 205 203 202 212 212 196 210 301 238 255 269 269 273 281 278 278 283 285 288 291 297 304 309 304
143 271 23 24 117 65 320 100 266 246 280 292 204 290 286 294 258 221 213 212 208 202 208 217 219 219 245 269 238 252 262 266 274 287 282 284 286 289 293 297 300 304 305 302
136 209 193 246 99 95 203 236 63 321 284 303 321 307 347 330 345 309 269 243 218 213 217 219 233 235 243 243 252 264 272 282 286 286 286 289 293 297 300 304 306 306 302 303
71 145 254 315 38 269 203 73 144 292 285 259 301 297 346 333 329 307 293 258 207 205 217 230 236 246 257 261 267 278 294 296 290 291 300 303 306 306 308 310 311 304 300 306
183 46 268 197 163 134 53 25 105 117 204 245 295 339 14 6 357 354 333 248 158 146 140 159 289 313 304 291 300 300 295 299 307 309 311 312 312 311 312 315 313 305 302 305
68 109 249 291 305 18 305 321 344 225 267 340 296 320 356 356 354 357 43 85 88 98 126 58 34 321 287 310 312 306 309 311 313 314 313 314 315 316 316 317 315 306 307 308
90 161 229 23 272 197 71 21 43 73 46 355 350 340 7 353 353 28 84 90 95 89 94 96 285 280 311 321 314 315 318 319 316 316 319 319 319 320 322 324 326 320 309 313
86 136 293 153 98 348 108 50 99 80 31 19 347 34 4 10 37 55 81 130 146 150 123 342 257 305 318 314 316 321 323 321 325 328 327 330 332 336 332 328 331 325 316 315
139 141 9 280 349 133 151 47 57 87 55 350 14 358 338 19 28 29 42 91 112 107 88 44 324 321 318 321 325 328 327 333 340 343 337 335 334 334 337 332 329 326 322 313
144 113 129 297 313 223 67 174 341 60 64 49 76 31 35 47 46 53 79 120 129 136 350 336 333 330 323 327 331 339 341 340 343 346 338 335 334 332 328 328 330 329 327 320
32 120 126 269 300 16 112 40 4 12 77 24 70 125 124 138 298 341 157 178 226 283 315 330 337 326 326 336 346 347 339 336 338 336 340 340 339 338 330 328 332 334 333 329
82 65 238 151 254 268 56 3 294 231 143 36 86 190 209 306 339 20 249 253 278 299 308 321 325 311 322 335 339 341 343 342 333 338 337 337 333 335 330 335 338 334 329 325
121 57 106 152 218 135 4 321 177 285 25 84 177 201 221 310 323 317 290 284 290 291 297 317 321 306 312 325 322 326 334 338 330 336 329 333 333 335 335 338 338 334 331 326
198 157 155 113 220 202 357 212 350 84 155 188 204 228 258 296 1 5 335 311 305 295 300 318 323 316 306 310 314 320 325 331 331 328 327 329 335 333 334 341 335 336 333 333
166 354 49 291 50 4 343 75 138 174 176 223 231 312 308 358 348 348 340 335 330 312 305 312 316 314 316 310 315 311 322 319 321 327 330 337 343 347 352 342 344 352 348 352
98 118 109 182 120 332 53 273 248 225 221 137 67 7 297 267 301 346 344 332 327 335 315 304 303 308 317 313 312 318 323 319 318 325 330 337 349 345 354 353 353 354 355 352
46 175 138 108 47 106 44 319 299 248 178 127 37 9 241 262 289 299 310 320 315 310 316 305 305 308 311 310 310 319 320 315 320 329 332 328 336 337 345 349 340 339 343 346
205 147 170 110 141 82 357 0 6 252 245 341 321 293 278 274 299 294 298 305 315 307 300 303 309 307 302 302 310 315 314 317 326 329 327 322 318 326 339 342 343 349 333 353